Regional Weather Roundup
Issued by NWS

Home | Current Version | Previous Version | Text Only | Print | Product List | Glossary On
Versions: 1 2 3 4 5 6 7 8 9 10 11 12 13 14 15 16 17 18 19 20 21 22 23 24 25 26 27 28 29 30 31 32 33 34 35 36 37 38 39 40 41 42 43 44 45 46 47 48 49 50
000
ASUS42 KTBW 271110
RWRFL
FLORIDA REGIONAL WEATHER ROUNDUP
NATIONAL WEATHER SERVICE TAMPA BAY RUSKIN FL
700 AM EDT WED AUG 27 2014

NOTE: "FAIR" INDICATES FEW OR NO CLOUDS BELOW 12,000 FEET WITH NO
SIGNIFICANT WEATHER AND/OR OBSTRUCTIONS TO VISIBILITY.


FLZ001>010-012>015-112-114-115-271200-
PANHANDLE FLORIDA

CITY           SKY/WX    TMP DP  RH WIND       PRES   REMARKS
PENSACOLA      CLEAR     73  69  87 NE6       29.99R
PENSACOLA NAS  MOCLDY    72  71  97 N3        29.98R
MILTON NAS     PTCLDY    69  65  86 CALM      30.01R
CRESTVIEW      CLEAR     68  66  93 E5        30.02R
DUKE FIELD     FAIR      70  70  99 NE6       30.01R
VALPARAISO     CLEAR     73  70  91 NE5       29.99S
MARY ESTHER    CLEAR     72  67  85 NE5       29.99R
TRI COUNTY     FAIR      68  67  96 CALM      30.03R
PANAMA CITY    FAIR      73  69  87 N3        30.01R
TYNDALL AFB    CLEAR     74  72  93 NE6       30.01R
APALACHICOLA   PTCLDY    74  71  91 NE6       29.99R

STATION/POSITION SKY/WX   TEMP    WIND        PRES    WAVE   SWELL
                          AIR SEA DIR/SP/G            HT/PER HT/PER
                          (F)     (DEG/KT/KT) (MB)    (FT/S) (FT/S)
30.1N   87.6W              81 85   30/  8/ 10 1015.2R   2/ 6   2/ 6
29.2N   88.2W              85 85   80/ 14/ 17 1014.6R
28.8N   86.0W              84 86  100/ 16/ 17 1014.0R   4/ 6
PANAMA CITY BEAC           76 85   50/  5/  6 1016.1R
CAPE SAN BLAS    NOT AVBL
TOWER C                    81     100/ 16/ 17 1015.5R
28.5N   84.5W              83 86   80/ 16/ 17 1014.3R   5/ 6

$$
FLZ011-016>038-118-127-128-134-139-239-271200-
NORTH FLORIDA

CITY           SKY/WX    TMP DP  RH WIND       PRES   REMARKS
MARIANNA       CLEAR     71  71 100 CALM      30.02R
TALLAHASSEE    CLEAR     72  68  87 CALM      30.02R
PERRY          CLEAR     70  68  94 CALM      30.01R
CROSS CITY       N/A     68  66  93 CALM      29.99R
LAKE CITY      FAIR      66  66 100 CALM      30.00R
GAINESVILLE    CLEAR     68  67  96 NW5       29.99R
MAYPORT NAS    PTCLDY    79  68  69 NE13      29.98R
JACKSONVILLE   PTCLDY    68  67  96 CALM      29.99R
JAX NAS        PTCLDY    78  69  73 CALM      29.99R
JAX CRAIG      CLEAR     72  68  87 CALM      29.98R
JAX CECIL      CLEAR     66  66 100 CALM      29.99S
FERNANDINA BEA PTSUNNY   75  70  83 N6        29.98R
ST AUGUSTINE   PTCLDY    78  70  76 N8        29.98R

STATION/POSITION SKY/WX   TEMP    WIND        PRES    WAVE   SWELL
                          AIR SEA DIR/SP/G            HT/PER HT/PER
                          (F)     (DEG/KT/KT) (MB)    (FT/S) (FT/S)
SHELL POINT                75      40/  2/  5   N/A
KEATON BEACH               71      30/  4/  5 1016.1R
CEDAR KEY                  75      70/ 12/ 13 1015.2R
FERNANDINA                 77 82  350/  7/  9 1014.8R
30.7N   81.3W                 83                N/A     6/11   2/11
MAYPORT                    80 82   50/ 10/ 13   N/A
31.4N   80.9W              80 84   30/ 14/ 17 1015.1R   5/ 9   3/ 9
ST AUGUSTINE               81      30/ 13/ 14 1015.5R

$$
FLZ040-043>046-052-053-057-058-063-144-271200-
INTERIOR CENTRAL FLORIDA

CITY           SKY/WX    TMP DP  RH WIND       PRES   REMARKS
OCALA          CLEAR     72  68  88 N3        29.98R
LEESBURG       CLEAR     76  72  87 NE5       29.98R
SANFORD        MOCLDY    76  72  87 N6        29.96R
ORLANDO EXEC   CLEAR     78  71  79 N5        29.97R
ORLANDO INTL   PTCLDY    76  72  87 N10       29.96R
KISSIMMEE      MOCLDY    77  75  94 CALM      29.97
WINTER HAVEN   CLEAR     74  72  93 N6        29.97R
LAKELAND       PTCLDY    77  70  78 CALM      29.96R
BARTOW         FAIR      73  73 100 N3        29.97R
OKEECHOBEE       N/A     70  70 100 MISG        N/A

$$
FLZ041-047-054-059-064-141-147-271200-
EAST CENTRAL FLORIDA

CITY           SKY/WX    TMP DP  RH WIND       PRES   REMARKS
ORMOND BEACH   CLEAR     73  72  94 CALM      29.96
DAYTONA BEACH  PTCLDY    75  72  90 CALM      29.97R
DELAND         MOSUNNY   73  72  94 N3        29.98R
NEW SMYRNA BEA PTCLDY    77  73  88 CALM      29.96
JFK SPACE CTR  HVY RAIN  75  73  94 NE1       29.96R FOG
TITUSVILLE     MOCLDY    73  72  94 N10       29.96
CAPE CANAVERAL CLEAR     77  73  87 N6        29.95R
PATRICK AFB    CLEAR     78  75  90 NW10      29.94R
MELBOURNE      CLEAR     74  72  93 NW5       29.94R
VERO BEACH     CLEAR     70  70 100 W5        29.93R
FT PIERCE      CLEAR     72  69  90 NW5       29.93R
STUART         PTCLDY    79  68  69 NE7       29.92S

STATION/POSITION SKY/WX   TEMP    WIND        PRES    WAVE   SWELL
                          AIR SEA DIR/SP/G            HT/PER HT/PER
                          (F)     (DEG/KT/KT) (MB)    (FT/S) (FT/S)
28.5N   80.2W              82 82   40/  8/  8 1013.5R
28.9N   78.5W              82 84   10/ 10/ 12 1012.5S  10/10  10/10
TRIDENT PIER               78 83  340/  6/ 10 1013.6R
28.4N   80.5W                 82                N/A     4/10   2/11
27.6N   80.2W                 83                N/A     5/ 9   2/11

$$
FLZ050-056-061-142-242-148-248-149-249-151-251-155-255-
160-260-271200-
WEST CENTRAL FLORIDA

CITY           SKY/WX    TMP DP  RH WIND       PRES   REMARKS
CRYSTAL RIVER  FAIR      72  70  94 CALM      29.97R
INVERNESS      FAIR      73  63  68 N5        29.98R
BROOKSVILLE    PTCLDY    73  71  93 CALM      29.98R
ZEPHYRHILLS    CLOUDY    68  68 100 CALM      29.98R
CLEARWATER     PTCLDY    78  72  81 E8        29.96R
TAMPA INTL     PTCLDY    76  71  85 NE5       29.97R
TAMPA EXEC     MOCLDY    75  72  88 CALM      29.97R
MACDILL AFB    CLEAR     74  73  98 NE5       29.96R
ST PETERSBURG  CLOUDY    80  74  81 E13       29.94R
SARASOTA       CLEAR     75  72  90 NE7       29.94R
VENICE           N/A    N/A N/A N/A MISG        N/A

STATION/POSITION SKY/WX   TEMP    WIND        PRES    WAVE   SWELL
                          AIR SEA DIR/SP/G            HT/PER HT/PER
                          (F)     (DEG/KT/KT) (MB)    (FT/S) (FT/S)
CEDAR KEY                  75      70/ 12/ 13 1015.2R
28.5N   84.5W              83 86   80/ 16/ 17 1014.3R   5/ 6
27.3N   84.3W                 87                N/A     5/ 6
CLEARWATER BEACH           77 86   70/  9/ 11 1014.0R
MIDDLE TAMPA BAY           79      80/ 12/ 14 1014.4S
VENICE                     74 87   30/  8/ 10 1013.7R

$$
FLZ066-069-070-075>078-162-262-165-265-271200-
SOUTHWEST FLORIDA AND KEYS

CITY           SKY/WX    TMP DP  RH WIND       PRES   REMARKS
PUNTA GORDA    CLEAR     73  70  90 NE6       29.96R
FT MYERS       CLEAR     73  70  90 NE6       29.93R
SOUTHWEST INTL CLEAR     73  68  84 NE8       29.93R
NAPLES         CLEAR     74  70  87 NE7       29.92R
MARCO ISLAND   SUNNY     73  70  88 NE8       29.92R
MARATHON       PTCLDY    84  73  69 E6        29.89R
KEY WEST NAS   PTCLDY    83  75  77 NE10      29.88R
KEY WEST INTL  CLEAR     83  75  77 NE7       29.88R

STATION/POSITION SKY/WX   TEMP    WIND        PRES    WAVE   SWELL
                          AIR SEA DIR/SP/G            HT/PER HT/PER
                          (F)     (DEG/KT/KT) (MB)    (FT/S) (FT/S)
VENICE                     74 87   30/  8/ 10 1013.7R
NAPLES                     75      30/  4/  6 1013.6R
DRY TORTUGAS               85      80/ 18/ 19 1011.5R
NW FL BAY                  82      50/ 11/ 13 1011.7S
SAND KEY                   83      50/ 18/ 20 1011.5R
SOMBRERO KEY               85      90/ 14/ 16 1012.4R
LONG KEY                   84 86   70/ 13/ 15 1012.3R
MOLASSES REEF              84 86   90/ 12/ 13 1012.2R

$$
FLZ067-068-071>074-168-172>174-271200-
SOUTHEAST FLORIDA

CITY           SKY/WX    TMP DP  RH WIND       PRES   REMARKS
W PALM BEACH   PTCLDY    76  71  85 N3        29.91R
FT LAUDER-EXEC PTCLDY    78  73  84 N5        29.91R
FT LAUDERDALE  MOCLDY    79  71  76 N3        29.90R
POMPANO BEACH  PTCLDY    79  70  74 N3        29.91R
PEMBROKE PINES PTCLDY    76  71  85 N5        29.92R
OPA LOCKA      PTCLDY    77  70  79 N5        29.92R
MIAMI          PTCLDY    79  70  74 N5        29.91R
WEST KENDALL   CLEAR     78  70  76 N5        29.91R
HOMESTEAD      PTCLDY    77  71  82 N5        29.91R

STATION/POSITION SKY/WX   TEMP    WIND        PRES    WAVE   SWELL
                          AIR SEA DIR/SP/G            HT/PER HT/PER
                          (F)     (DEG/KT/KT) (MB)    (FT/S) (FT/S)
PORT EVERGLADES            83      50/  8/ 11 1012.5
VIRGINIA KEY               83 86   50/  6/  8   N/A
LAKE WORTH                 83 85   30/ 10/ 13 1012.5R
FOWEY ROCKS                83 86   70/ 10/ 10 1013.1R
SETTLEMENT POINT           80     180/  2/  3 1013.4R

$$



USA.gov is the U.S. government's official web portal to all federal, state and local government web resources and services.